COSMOS 2251 DEB, 53093

Orbit data source: Space-Track

COSMOS 2251 DEB, 53093 is space debris in LEO originally from a launch on Wed, 16 Jun 1993 UTC launched from the Plesetsk Missile And Space Complex (PKMTR). The debris from Iridium 33, an American commercial communications satellite, has been tracked extensively since its accidental collision with the defunct Russian satellite Cosmos 2251 in 2009. This event, occurring at high speed in low Earth orbit (LEO), generated thousands of pieces of space debris, significantly increasing the risk of further collisions. The Iridium 33 debris cloud has impacted space traffic management and orbital debris mitigation strategies, making it a subject of ongoing study in space situational awareness.

Loading next visibility...
Identifier
53093, 1993-036BYP
Orbit
LEO
Country
Flag of CISCIS
Related business
Manufacturer
Unknown
Mission
Spacecraft
Bus & Motor
Unknown
Mass
Unknown
Launch date (UTC)
1993-06-16 (33 years ago)
Launch vehicle
Unknown
Launch site
Plesetsk Missile And Space Complex (PKMTR)
Object type
Payload
Rocket body
Debris
Shape & HBR
Unknown shape, 0.1 m
Radar Cross Section
Medium (>0.1 m² and <1 m²)

Expand to show TLE details & history
Last TLE update: 2 days ago

TLE from 2 days ago
0 COSMOS 2251 DEB
1 53093U 93036BYP 26171.46042389  .00001271  00000-0  38780-3 0  9994
2 53093  74.0355 309.5130 0020899 348.5880  11.4799 14.42839885204617
Epoch: 2026-06-20T11:03Z
TLE epoch observation values (Epoch: 2026-06-20T11:03:00.624Z)
Latitude
-0.00005°
Longitude
-124.91434°
Altitude
737.152 km
Speed
7.494 km/s
True Right ascension
20h 38m 03s
True Declination
0° 00' 00"
Sunlit
Object was in full shadow at epoch
Visualization orbit readout
Latitude
Unknown
Longitude
Unknown
Altitude
Unknown
Speed
Unknown
Apparent Right ascension
Unknown
Apparent Declination
Unknown
Sunlit
N/A
Visualization observer readout
Local Sidereal Time
22:00:14
Azimuth
Unknown
Elevation
Unknown
Doppler factor
Unknown
Orbital elements
Apogee altitude
761.638 km
Perigee altitude
731.857 km
Semi-major axis
7,124.884 km
Eccentricity
0.00209
Inclination
74.0355°
RAAN
309.513°
Arg. of periapsis
348.588°
True anomaly
11.52769°
Mean anomaly
11.4799°
Eccentric anomaly
11.50378°
Mean motion
3.60891 °/min
Orbital period
99.75 mins
BSTAR
0.0003878

Documentation

Showing up to 5 results
|